Temp
24 23 23 22 22 22 22 21 22 21 21 21 20 20 20 21 22 22 22 23 22 22 21 22 22 23 24 25 26 27 27 28 30 31 31 31 31 31 30 31 31 31
22 22 22 22 21 22 21 21 21 20 20 20 20 20 21 20 20 21 20 21 21 20 21 20 21 22 22 23 24 24 25 25 26 29 28 28 29 31 30 30 30 31
21 21 20 20 19 20 20 20 20 20 19 19 20 20 19 20 19 20 20 20 20 20 19 19 19 20 21 21 23 23 23 23 23 26 26 26 27 27 29 30 30 30
19 19 19 19 19 19 19 18 19 19 19 18 18 18 19 19 18 18 18 18 18 18 19 19 18 19 19 20 21 21 22 22 23 24 24 24 25 26 26 27 27 27
17 18 18 18 18 18 18 17 16 17 16 16 17 17 17 17 16 16 16 16 17 17 17 17 18 17 18 19 20 19 20 20 22 22 22 22 23 24 25 25 24 24
16 16 16 16 16 15 15 14 14 15 15 15 15 16 16 16 15 14 14 14 15 15 15 15 15 15 16 17 18 18 18 18 20 20 20 20 21 21 22 23 23 22
14 14 14 14 14 14 13 13 13 13 13 13 13 13 13 13 13 12 12 12 12 12 12 12 13 13 14 15 16 17 17 17 17 19 18 18 18 18 19 20 21 21
14 14 13 13 12 12 12 12 12 12 12 12 11 11 11 11 11 11 11 10 10 11 11 11 11 12 13 14 15 16 16 16 16 17 17 16 16 15 16 17 19 19
13 12 12 11 11 11 10 11 11 11 11 10 10 10 11 10 10 10 9 9 9 9 9 9 10 10 12 14 15 15 15 15 15 15 15 14 13 13 14 15 15 15
11 11 11 10 9 10 9 9 9 10 10 9 9 9 9 9 9 9 8 8 7 7 7 7 8 9 11 13 15 16 15 15 15 15 14 13 13 12 12 12 12 13
10 10 9 9 9 9 8 8 8 8 9 8 8 7 7 7 7 8 7 6 5 5 6 6 6 8 10 12 14 16 15 15 15 14 14 13 12 11 11 11 11 10
9 9 9 8 8 8 7 7 7 7 7 6 6 5 5 5 5 5 5 5 5 4 5 5 5 6 10 11 14 15 14 14 14 14 14 12 11 11 10 10 9 9
9 8 8 8 8 7 7 6 6 6 5 5 5 5 4 3 4 3 4 4 4 3 3 3 4 5 8 10 13 15 13 13 13 14 12 11 10 10 10 9 8 8
9 8 8 8 8 7 7 6 5 5 4 5 4 3 3 2 2 2 3 3 2 2 2 3 2 4 6 9 13 14 13 12 13 11 10 9 9 9 9 8 7 7
8 8 8 7 7 6 6 5 5 4 4 4 3 3 3 3 2 2 1 1 1 1 1 1 1 2 5 8 13 14 13 12 11 9 7 6 6 6 7 6 6 6
7 7 6 6 6 5 5 5 4 4 3 3 2 2 2 2 1 1 0 -1 -1 -1 -1 -1 -1 0 3 11 16 15 13 11 9 8 6 4 2 2 3 4 4 4
6 5 5 4 4 5 4 3 3 3 2 1 1 1 1 0 0 -1 -1 -1 -2 -3 -3 -2 -2 -0 6 16 17 18 12 9 8 7 6 4 2 -0 0 1 1 1
5 4 3 3 3 3 3 3 2 2 1 0 -0 -0 0 -0 -1 -1 -1 -2 -2 -3 -4 -3 -4 1 11 15 16 17 14 9 8 7 6 4 2 -0 -0 -1 -1 -1
3 2 2 2 2 2 2 2 0 0 -1 -1 -2 -1 -1 -2 -2 -2 -3 -3 -3 -4 -5 -4 -5 0 10 14 15 16 16 9 8 6 5 2 1 -1 -2 -2 -2 -1
2 1 0 0 1 1 0 -0 -1 -2 -2 -1 -3 -1 -2 -3 -4 -4 -4 -5 -5 -6 -6 -5 -5 -0 9 13 14 16 14 9 3 2 1 1 0 -1 -2 -3 -2 -3
-0 -1 -1 -1 -1 -1 -2 -2 -2 -3 -3 -2 -4 -3 -4 -6 -6 -7 -6 -6 -7 -7 -7 -7 -6 2 10 12 13 15 11 7 0 -1 -2 -2 -2 -3 -3 -2 -2 -3
-2 -3 -3 -3 -3 -3 -4 -4 -4 -4 -6 -4 -6 -5 -7 -7 -7 -7 -8 -8 -8 -9 -9 -9 -6 1 8 11 13 13 8 1 -1 -4 -5 -5 -4 -4 -3 -3 -2 -2
-3 -4 -5 -5 -5 -6 -6 -6 -5 -6 -7 -7 -10 -7 -7 -8 -8 -8 -9 -10 -9 -10 -11 -10 -9 -3 3 9 11 12 4 -2 -5 -6 -7 -6 -6 -6 -6 -5 -4 -2
-4 -6 -7 -7 -8 -8 -8 -7 -7 -7 -8 -7 -10 -9 -11 -11 -12 -11 -11 -11 -11 -12 -10 -12 -11 -6 -1 5 9 10 5 -3 -5 -9 -11 -9 -8 -7 -8 -8 -5 1
-6 -7 -8 -9 -10 -10 -10 -10 -9 -9 -9 -8 -11 -13 -13 -13 -12 -14 -12 -13 -12 -13 -7 -11 -13 -9 -3 1 7 8 6 -0 -4 -10 -11 -12 -9 -10 -10 -11 -8 -5
-8 -9 -10 -11 -11 -11 -12 -12 -11 -12 -11 -11 -12 -14 -15 -15 -14 -15 -16 -15 -14 -15 -14 -15 -14 -12 -7 -1 4 5 7 2 -4 -9 -11 -14 -13 -13 -11 -14 -11 -10
MSLP
1024.59 1024.67 1024.87 1025.03 1025.23 1025.39 1025.43 1025.55 1025.63 1025.71 1025.79 1025.79 1025.67 1025.79 1025.75 1025.75 1025.55 1025.39 1025.39 1025.27 1025.19 1025.11 1024.99 1024.87 1024.67 1024.43 1024.23 1023.99 1023.79 1023.55 1023.51 1023.39 1023.07 1022.99 1022.91 1022.79 1022.83 1022.79 1022.75 1022.67 1022.55 1022.47
1025.31 1025.35 1025.47 1025.63 1025.79 1025.95 1026.07 1026.11 1026.15 1026.15 1026.27 1026.23 1026.27 1026.31 1026.27 1026.11 1026.07 1026.03 1025.95 1025.87 1025.67 1025.59 1025.51 1025.39 1025.23 1025.07 1024.91 1024.71 1024.51 1024.35 1024.27 1024.15 1023.99 1023.79 1023.67 1023.55 1023.43 1023.27 1023.23 1023.15 1023.07 1022.95
1026.07 1026.07 1026.15 1026.31 1026.51 1026.63 1026.67 1026.67 1026.63 1026.67 1026.75 1026.91 1026.87 1026.75 1026.71 1026.63 1026.63 1026.51 1026.43 1026.39 1026.27 1026.19 1026.03 1025.91 1025.71 1025.59 1025.51 1025.39 1025.19 1025.07 1025.03 1024.95 1024.83 1024.59 1024.43 1024.39 1024.23 1024.15 1023.95 1023.67 1023.55 1023.43
1026.91 1026.83 1026.99 1027.11 1027.11 1027.15 1027.19 1027.19 1027.31 1027.35 1027.31 1027.23 1027.31 1027.39 1027.31 1027.27 1027.15 1027.03 1026.95 1026.91 1026.87 1026.83 1026.71 1026.51 1026.43 1026.27 1026.03 1025.83 1025.71 1025.71 1025.71 1025.63 1025.63 1025.39 1025.19 1025.07 1024.99 1024.83 1024.75 1024.59 1024.43 1024.27
1027.83 1027.79 1027.87 1027.83 1027.75 1027.75 1027.79 1027.87 1027.95 1027.99 1027.99 1028.07 1028.03 1027.95 1027.87 1027.79 1027.67 1027.63 1027.55 1027.47 1027.47 1027.43 1027.35 1027.19 1027.07 1026.95 1026.79 1026.51 1026.31 1026.27 1026.27 1026.23 1026.11 1025.99 1025.83 1025.83 1025.79 1025.63 1025.47 1025.35 1025.19 1025.03
1028.79 1028.79 1028.79 1028.71 1028.59 1028.51 1028.51 1028.63 1028.75 1028.75 1028.71 1028.67 1028.79 1028.67 1028.59 1028.47 1028.39 1028.35 1028.31 1028.19 1028.11 1028.11 1028.03 1027.87 1027.79 1027.67 1027.47 1027.23 1026.99 1026.99 1026.99 1026.91 1026.79 1026.59 1026.47 1026.51 1026.55 1026.43 1026.23 1026.03 1025.91 1025.79
1029.75 1029.63 1029.71 1029.67 1029.47 1029.31 1029.35 1029.47 1029.51 1029.51 1029.47 1029.55 1029.47 1029.43 1029.35 1029.19 1029.11 1029.11 1029.03 1028.91 1028.79 1028.71 1028.67 1028.59 1028.43 1028.31 1028.07 1027.87 1027.63 1027.59 1027.55 1027.51 1027.39 1027.11 1027.11 1027.23 1027.27 1027.23 1027.03 1026.75 1026.55 1026.51
1030.43 1030.43 1030.51 1030.47 1030.19 1030.03 1030.03 1030.15 1030.23 1030.19 1030.23 1030.15 1030.07 1030.15 1029.99 1029.87 1029.91 1029.83 1029.75 1029.59 1029.43 1029.39 1029.35 1029.23 1029.11 1028.91 1028.63 1028.31 1028.19 1028.07 1028.07 1028.07 1027.95 1027.75 1027.71 1027.91 1027.95 1027.99 1027.91 1027.71 1027.43 1027.19
1031.19 1031.23 1031.27 1031.11 1030.91 1030.79 1030.79 1030.87 1030.99 1031.03 1030.87 1030.71 1030.67 1030.67 1030.59 1030.55 1030.63 1030.47 1030.27 1030.11 1030.03 1029.99 1029.91 1029.79 1029.71 1029.47 1029.15 1028.83 1028.63 1028.51 1028.55 1028.55 1028.55 1028.47 1028.47 1028.59 1028.67 1028.71 1028.67 1028.47 1028.19 1028.07
1031.99 1032.07 1031.91 1031.75 1031.59 1031.63 1031.67 1031.67 1031.71 1031.67 1031.55 1031.39 1031.35 1031.31 1031.27 1031.19 1031.03 1030.91 1030.75 1030.71 1030.63 1030.51 1030.39 1030.31 1030.19 1029.95 1029.51 1029.23 1029.03 1028.91 1028.95 1028.99 1029.03 1029.03 1029.11 1029.23 1029.39 1029.43 1029.39 1029.23 1029.07 1028.87
1032.71 1032.79 1032.67 1032.43 1032.31 1032.31 1032.35 1032.31 1032.35 1032.39 1032.31 1032.15 1031.95 1031.83 1031.83 1031.75 1031.59 1031.43 1031.39 1031.19 1031.19 1031.07 1030.91 1030.79 1030.75 1030.51 1029.99 1029.63 1029.39 1029.31 1029.39 1029.31 1029.35 1029.39 1029.47 1029.71 1029.87 1029.95 1029.99 1029.87 1029.75 1029.71
1033.19 1033.27 1033.27 1033.19 1033.03 1032.91 1032.95 1033.03 1032.99 1032.91 1032.79 1032.63 1032.59 1032.55 1032.47 1032.35 1032.27 1032.11 1031.95 1031.87 1031.79 1031.67 1031.47 1031.39 1031.19 1030.99 1030.43 1030.03 1029.71 1029.67 1029.79 1029.71 1029.63 1029.63 1029.79 1030.07 1030.19 1030.27 1030.35 1030.31 1030.31 1030.27
1033.63 1033.79 1033.87 1033.79 1033.63 1033.51 1033.51 1033.55 1033.51 1033.43 1033.31 1033.27 1033.15 1033.15 1033.07 1032.95 1032.79 1032.67 1032.51 1032.51 1032.35 1032.15 1031.99 1031.87 1031.67 1031.39 1030.91 1030.43 1029.99 1029.83 1029.99 1029.95 1029.87 1029.91 1030.15 1030.31 1030.47 1030.51 1030.55 1030.59 1030.67 1030.59
1034.03 1034.23 1034.27 1034.27 1034.19 1034.07 1033.99 1033.99 1033.95 1033.79 1033.71 1033.67 1033.71 1033.67 1033.59 1033.47 1033.31 1033.19 1033.11 1033.03 1032.83 1032.67 1032.51 1032.27 1032.11 1031.71 1031.31 1030.75 1030.19 1029.99 1030.15 1030.15 1030.07 1030.39 1030.59 1030.71 1030.79 1030.75 1030.71 1030.79 1030.83 1030.83
1034.39 1034.51 1034.59 1034.63 1034.59 1034.31 1034.07 1034.07 1034.19 1034.35 1034.35 1034.31 1034.23 1034.15 1033.99 1033.87 1033.75 1033.63 1033.59 1033.47 1033.27 1033.11 1032.91 1032.67 1032.47 1032.15 1031.67 1030.99 1030.23 1030.07 1030.19 1030.23 1030.51 1030.91 1031.03 1031.11 1031.15 1031.07 1031.03 1031.07 1031.03 1030.99
1034.83 1034.91 1034.83 1034.67 1034.55 1034.51 1034.67 1034.79 1034.91 1034.91 1034.79 1034.67 1034.59 1034.47 1034.35 1034.19 1034.07 1033.99 1033.95 1033.91 1033.71 1033.47 1033.23 1032.99 1032.83 1032.47 1031.91 1030.87 1030.23 1030.15 1030.27 1030.67 1030.91 1031.07 1031.23 1031.31 1031.39 1031.43 1031.43 1031.39 1031.39 1031.31
1035.07 1035.11 1034.95 1034.91 1035.03 1035.15 1035.35 1035.43 1035.35 1035.23 1035.07 1035.07 1034.95 1034.83 1034.67 1034.59 1034.43 1034.35 1034.27 1034.19 1034.07 1033.83 1033.55 1033.27 1033.15 1032.75 1031.87 1030.71 1030.47 1030.15 1030.59 1030.95 1031.15 1031.19 1031.27 1031.39 1031.55 1031.71 1031.75 1031.75 1031.71 1031.59
1035.31 1035.43 1035.51 1035.55 1035.63 1035.67 1035.79 1035.83 1035.67 1035.47 1035.35 1035.39 1035.35 1035.19 1035.15 1035.03 1034.83 1034.75 1034.67 1034.55 1034.39 1034.19 1033.91 1033.67 1033.47 1032.91 1031.79 1031.07 1030.75 1030.43 1030.71 1031.19 1031.27 1031.31 1031.39 1031.59 1031.79 1031.99 1032.07 1032.07 1031.99 1031.87
1035.79 1035.91 1036.03 1036.11 1036.15 1036.15 1036.07 1035.99 1035.83 1035.79 1035.71 1035.67 1035.67 1035.47 1035.51 1035.39 1035.27 1035.15 1034.99 1034.95 1034.79 1034.59 1034.39 1034.15 1033.91 1033.35 1032.23 1031.51 1031.11 1030.71 1030.67 1031.35 1031.51 1031.67 1031.87 1032.15 1032.23 1032.35 1032.31 1032.27 1032.15 1032.07
1036.31 1036.43 1036.51 1036.59 1036.55 1036.47 1036.39 1036.31 1036.31 1036.19 1035.99 1035.79 1035.87 1035.71 1035.75 1035.71 1035.55 1035.43 1035.31 1035.27 1035.11 1034.91 1034.67 1034.51 1034.19 1033.63 1032.51 1031.83 1031.43 1030.91 1031.07 1031.67 1032.19 1032.39 1032.51 1032.59 1032.67 1032.63 1032.55 1032.47 1032.39 1032.31
1036.91 1036.91 1036.99 1036.99 1036.99 1036.95 1036.87 1036.63 1036.43 1036.15 1036.03 1035.83 1036.11 1035.99 1035.99 1035.95 1035.79 1035.71 1035.63 1035.55 1035.39 1035.19 1034.91 1034.67 1034.43 1033.67 1032.67 1032.11 1031.67 1031.27 1031.75 1032.27 1032.79 1032.83 1032.91 1032.91 1032.87 1032.79 1032.71 1032.63 1032.55 1032.47
1037.39 1037.39 1037.35 1037.35 1037.19 1037.03 1036.83 1036.59 1036.43 1036.35 1036.43 1036.31 1036.59 1036.39 1036.23 1036.11 1035.99 1035.87 1035.83 1035.67 1035.55 1035.39 1035.07 1034.87 1034.63 1033.99 1033.11 1032.47 1031.95 1031.75 1032.35 1032.99 1033.15 1033.27 1033.31 1033.27 1033.07 1032.95 1032.87 1032.75 1032.67 1032.43
1037.79 1037.71 1037.63 1037.55 1037.43 1037.27 1037.07 1036.87 1036.79 1036.71 1036.87 1036.79 1036.95 1036.55 1036.43 1036.27 1036.19 1036.07 1036.03 1035.91 1035.67 1035.55 1035.27 1035.15 1035.03 1034.55 1033.87 1032.99 1032.47 1032.11 1032.87 1033.35 1033.51 1033.55 1033.55 1033.51 1033.35 1033.23 1033.11 1032.99 1032.79 1032.47
1038.15 1038.11 1037.95 1037.87 1037.75 1037.59 1037.47 1037.35 1037.23 1037.15 1037.15 1036.99 1036.99 1036.67 1036.59 1036.51 1036.51 1036.31 1036.15 1036.03 1035.79 1035.67 1035.47 1035.43 1035.31 1035.03 1034.51 1033.71 1033.03 1032.55 1032.91 1033.51 1033.71 1033.75 1033.63 1033.59 1033.51 1033.31 1033.23 1033.03 1032.87 1032.63
1038.59 1038.55 1038.43 1038.31 1038.19 1038.03 1037.99 1037.87 1037.63 1037.47 1037.39 1037.19 1037.15 1036.99 1036.83 1036.79 1036.67 1036.39 1036.11 1035.99 1035.95 1035.91 1035.67 1035.63 1035.55 1035.35 1034.95 1034.31 1033.51 1033.19 1032.95 1033.39 1033.75 1033.87 1033.71 1033.59 1033.59 1033.43 1033.27 1033.19 1033.03 1032.87
1039.03 1038.91 1038.79 1038.71 1038.55 1038.39 1038.27 1038.19 1038.03 1037.87 1037.67 1037.55 1037.35 1037.23 1036.99 1036.87 1036.71 1036.47 1036.07 1035.95 1036.11 1036.03 1035.95 1035.91 1035.75 1035.55 1035.27 1034.71 1034.07 1033.63 1033.19 1033.15 1033.67 1033.83 1033.71 1033.63 1033.59 1033.51 1033.39 1033.23 1033.15 1033.07
Wind_Speed
10 10 10 10 9 9 9 9 8 9 9 8 9 9 10 9 10 11 10 10 11 11 10 10 11 11 10 10 11 8 8 9 10 9 9 9 8 8 7 7 6 5
12 12 10 9 9 9 9 9 9 9 10 10 9 8 9 9 10 10 10 10 10 11 10 10 10 11 10 9 10 10 9 9 9 9 10 12 9 9 9 8 7 6
12 12 13 12 11 11 11 10 10 10 10 10 9 9 9 9 9 10 10 10 10 11 11 10 11 11 10 10 10 9 10 11 10 9 9 11 9 10 9 9 9 9
13 13 11 11 11 11 10 10 10 9 9 10 11 10 9 9 9 11 11 11 10 11 11 11 12 10 10 10 10 9 10 10 9 9 9 9 10 9 10 8 9 9
13 12 11 11 11 11 11 12 12 11 11 10 10 10 10 11 11 11 11 11 11 11 11 11 11 11 11 10 10 9 10 9 10 10 9 10 10 10 9 10 10 11
13 13 12 12 11 12 12 13 12 11 11 12 11 10 10 11 11 11 11 11 10 10 11 10 11 11 10 9 9 9 9 9 9 11 11 11 11 11 9 10 11 11
13 13 14 12 13 13 13 12 11 11 11 10 10 11 10 11 11 11 11 10 10 10 11 10 10 10 9 8 9 10 9 10 10 10 11 10 10 12 12 11 10 10
13 13 12 12 13 13 13 12 12 11 10 10 11 10 10 11 12 9 9 10 10 10 10 10 10 10 9 7 10 9 10 9 9 11 11 11 10 11 12 10 10 10
13 13 12 13 14 13 14 12 11 11 10 10 10 10 10 10 10 10 10 10 10 9 9 9 10 9 8 8 9 10 10 10 10 10 11 11 11 11 11 10 11 11
13 12 14 13 14 12 14 12 11 10 10 11 10 9 10 9 10 10 10 10 9 9 10 9 9 9 10 10 9 10 10 10 9 9 9 10 10 10 10 10 10 10
13 12 13 14 13 12 13 12 12 10 10 10 10 10 10 9 9 9 9 10 10 10 9 9 9 8 9 9 8 10 11 9 9 8 9 9 9 9 10 9 10 9
12 12 13 13 12 12 12 12 10 11 10 10 10 10 10 9 10 9 9 10 10 9 9 9 8 8 9 8 7 9 9 8 7 8 9 9 8 8 8 8 9 8
11 11 10 11 11 11 10 10 10 10 10 10 9 9 10 9 9 9 9 9 9 9 9 9 8 7 9 9 7 9 8 7 7 8 9 8 7 7 7 8 8 7
9 9 9 9 9 9 9 9 9 9 10 9 9 9 9 10 9 9 8 8 8 8 8 7 7 9 8 8 6 7 6 6 7 8 7 7 7 7 8 8 8 7
8 8 8 8 8 9 10 10 10 9 9 8 8 8 8 9 9 9 8 9 8 8 7 7 6 7 7 9 6 6 5 4 7 7 6 6 6 6 7 7 8 7
8 8 8 8 10 11 10 9 8 7 7 8 8 8 8 8 9 8 8 8 8 8 8 7 7 6 10 16 14 8 6 6 6 5 5 4 5 5 5 6 7 7
7 8 9 10 9 8 8 8 7 7 7 8 8 8 8 8 8 9 8 8 8 8 9 8 7 8 17 17 16 15 7 6 5 4 4 4 5 4 5 5 5 6
8 8 9 9 8 8 7 7 6 7 7 7 7 7 7 7 7 8 7 7 7 8 8 8 8 12 20 17 16 15 10 6 5 5 5 5 5 5 5 4 4 5
8 8 8 8 7 7 6 6 6 6 5 6 7 5 5 6 6 7 6 6 6 7 7 7 7 12 19 16 15 15 12 11 5 7 7 6 6 6 6 5 5 5
7 7 7 7 6 6 6 5 5 5 5 3 5 4 5 5 5 6 6 6 6 6 6 6 7 12 16 15 14 14 14 13 9 9 7 6 6 5 5 5 5 5
7 6 6 6 5 5 4 4 5 5 6 5 5 5 5 4 5 4 5 5 5 6 5 6 6 15 15 15 14 14 17 13 8 7 7 6 6 5 5 5 4 4
6 6 6 6 6 6 6 6 6 6 6 5 5 4 3 3 4 3 4 5 5 5 6 6 7 16 16 16 15 13 16 8 7 6 6 6 7 7 6 5 5 5
7 6 6 6 6 6 6 6 6 5 4 3 3 4 4 4 4 4 3 4 5 4 5 5 6 13 17 17 15 13 11 6 6 6 5 5 6 4 5 4 5 5
6 6 6 6 6 6 7 6 5 4 4 4 3 3 4 3 3 4 3 3 4 5 4 4 5 10 16 17 15 17 8 6 5 5 4 4 4 5 4 4 5 11
6 6 6 6 6 6 5 6 5 5 4 4 3 3 3 3 3 3 4 3 4 4 6 6 5 7 13 15 16 15 11 4 5 5 5 4 4 4 4 3 4 6
5 6 6 6 6 6 6 4 4 4 4 3 3 2 3 3 2 3 4 4 3 4 4 3 4 6 7 16 16 16 16 8 4 6 5 4 4 3 5 4 3 4
Wind_Direction
60 60 61 59 58 54 54 55 50 52 47 43 45 37 36 30 22 25 25 25 28 29 21 16 14 13 14 18 18 17 19 14 27 24 27 33 34 33 35 31 37 47
57 60 61 63 60 56 55 53 54 52 48 43 39 41 34 33 27 27 24 23 25 27 23 20 20 19 15 13 13 20 20 16 18 21 27 25 22 28 31 30 32 32
57 59 58 58 59 56 54 52 52 49 50 45 42 38 35 29 28 27 30 29 27 24 22 20 20 19 17 15 16 24 25 21 16 12 22 21 18 18 12 23 28 31
53 55 55 57 57 56 53 52 49 47 44 44 39 36 34 30 29 30 30 30 29 28 23 24 23 18 17 18 22 28 23 25 14 14 24 24 20 17 19 19 22 23
49 50 50 51 52 53 52 51 47 45 44 42 39 34 35 31 30 31 30 28 32 28 28 24 24 21 18 20 25 30 25 21 18 17 25 27 19 20 20 23 22 23
47 48 47 46 46 48 50 47 43 42 43 42 36 35 34 36 34 32 29 29 27 27 27 26 27 25 22 18 27 32 27 23 16 21 28 30 23 20 18 22 23 25
45 43 42 43 46 47 50 46 43 40 40 39 41 37 30 36 36 31 30 29 27 26 26 22 23 21 15 14 29 32 29 24 17 24 35 30 25 21 16 16 19 23
46 46 44 42 45 44 45 42 38 38 36 37 41 36 32 35 36 29 31 27 31 29 27 25 24 20 14 8 30 32 33 26 18 25 34 31 26 25 16 13 10 22
46 44 42 41 43 41 40 39 36 34 32 39 38 35 34 34 33 31 31 31 34 30 25 25 22 15 8 11 27 34 34 31 30 31 35 31 28 23 16 10 16 21
45 41 42 41 43 39 38 35 34 32 30 34 37 36 33 27 31 31 32 30 29 26 27 21 18 14 19 19 20 33 32 34 34 38 39 38 34 26 18 16 14 14
44 40 40 41 42 40 36 34 31 30 29 31 33 34 30 26 25 27 26 28 26 23 20 20 18 10 8 8 14 32 27 28 31 36 42 43 38 32 25 21 17 18
46 41 39 39 39 39 37 32 30 29 28 28 30 29 27 26 26 22 25 24 24 18 17 15 11 10 12 359 8 32 27 19 26 32 43 40 35 32 29 24 24 17
49 45 41 38 38 38 36 31 28 27 28 28 23 26 25 22 22 25 21 22 18 19 17 14 4 8 9 353 356 27 30 16 23 34 37 34 31 29 27 26 23 17
53 47 43 40 38 39 39 37 32 29 27 25 22 22 24 23 20 22 16 15 15 16 11 9 1 12 3 345 351 22 29 9 33 37 36 32 28 24 24 22 19 14
55 50 45 41 39 36 35 33 29 27 25 24 25 23 23 21 21 23 17 13 10 13 6 7 3 356 358 341 349 15 23 25 54 46 37 34 26 26 24 22 14 10
55 49 42 39 34 34 30 28 26 24 26 23 24 22 21 18 19 18 18 14 8 6 8 6 2 350 326 334 14 7 44 62 57 50 42 37 31 26 25 22 12 7
51 41 39 37 34 33 28 22 24 21 28 24 19 21 17 15 17 13 13 9 6 5 1 3 356 343 331 0 9 13 63 65 56 37 37 35 34 36 24 16 8 3
44 41 38 32 31 27 25 21 19 22 25 25 12 20 14 11 16 13 6 6 2 1 3 356 350 338 344 3 7 5 59 60 55 31 34 25 30 29 22 19 6 4
39 38 34 26 22 19 16 19 21 22 18 25 9 8 12 11 9 9 4 2 1 359 357 353 342 338 341 2 3 357 39 66 36 35 37 29 28 24 17 10 4 3
34 33 28 22 14 12 8 15 18 22 10 22 10 358 13 3 358 5 358 2 359 356 350 350 345 331 346 1 2 354 41 54 50 46 43 33 28 18 6 4 2 1
28 25 19 13 7 6 2 9 17 16 12 14 10 354 4 359 348 359 352 357 355 355 350 354 343 341 354 0 355 13 56 56 43 41 27 15 12 2 356 1 359 354
22 15 13 4 5 359 4 6 13 10 7 3 4 338 349 356 339 4 353 350 353 359 358 357 350 350 354 357 359 33 63 56 41 38 24 8 2 353 352 355 353 355
14 9 3 1 358 358 359 360 2 355 1 356 358 337 352 353 346 344 344 345 352 5 1 358 358 348 353 353 1 17 69 61 50 33 15 12 353 347 346 351 353 355
9 4 359 358 355 360 353 348 348 342 342 350 350 340 344 346 336 335 342 356 1 2 2 15 354 350 357 350 359 353 37 76 59 42 11 1 351 341 341 349 347 359
1 0 355 354 348 343 341 336 335 333 321 333 339 339 327 337 343 350 342 2 8 8 14 18 353 353 356 352 350 349 351 87 54 47 14 339 355 331 325 345 345 340
356 358 350 353 346 332 329 328 315 325 329 332 329 335 326 334 343 358 353 343 356 4 6 5 6 349 356 357 350 347 341 357 42 33 345 334 334 326 337 322 335 331